This is the latest recevied weather packets stored in our database for station/object VR2OT-10. If no packets are shown the sender has not sent any weather packets the latest 10 day(s).
| Time | Temp. | Humidity | Pressure | Rain* | Wind** | Luminosity | Snow |
|---|---|---|---|---|---|---|---|
| 1787520333 | 28.89° C | 86% | 999.7 hPa | - | 1.34 m/s, 270° | - | - |
| 1787519432 | 28.89° C | 89% | 999.7 hPa | - | 1.79 m/s, 270° | - | - |
| 1787518533 | 28.89° C | 89% | 999.7 hPa | - | 1.34 m/s, 315° | - | - |
| 1787515834 | 28.89° C | 89% | 1000 hPa | - | 2.24 m/s, 225° | - | - |
| 1787514933 | 28.89° C | 89% | 1000 hPa | - | 1.34 m/s, 315° | - | - |
| 1787514032 | 28.89° C | 89% | 999.9 hPa | - | 1.34 m/s, 315° | - | - |
| 1787513133 | 28.89° C | 90% | 1000.2 hPa | - | 3.13 m/s, 270° | - | - |
| 1787512234 | 28.89° C | 91% | 1000.3 hPa | - | 3.58 m/s, 270° | - | - |
| 1787511332 | 28.89° C | 87% | 1000.2 hPa | - | 1.34 m/s, 225° | - | - |
| 1787510434 | 28.89° C | 84% | 1000.3 hPa | - | 2.24 m/s, 270° | - | - |
| 1787509533 | 28.89° C | 84% | 1000.7 hPa | - | 1.79 m/s, 270° | - | - |
| 1787507733 | 28.89° C | 83% | 1000.6 hPa | - | 1.34 m/s, 270° | - | - |
| 1787506834 | 28.89° C | 83% | 1000.7 hPa | - | 1.79 m/s, 270° | - | - |
| 1787505932 | 28.89° C | 83% | 1001 hPa | - | 2.68 m/s, 270° | - | - |
| 1787505033 | 28.89° C | 83% | 1001 hPa | - | 2.24 m/s, 270° | - | - |
| 1787503232 | 28.89° C | 82% | 1001.2 hPa | - | 1.34 m/s, 270° | - | - |
| 1787502333 | 28.89° C | 81% | 1001.6 hPa | - | 3.13 m/s, 270° | - | - |
| 1787499634 | 29.44° C | 83% | 1001.7 hPa | - | 1.34 m/s, 225° | - | - |
| 1787498734 | 29.44° C | 83% | 1002 hPa | - | 1.34 m/s, 270° | - | - |
| 1787497832 | 29.44° C | 82% | 1002.1 hPa | - | 1.34 m/s, 270° | - | - |
| 1787496933 | 29.44° C | 83% | 1002.2 hPa | - | 1.34 m/s, 270° | - | - |
| 1787496034 | 29.44° C | 82% | 1002.2 hPa | - | 1.34 m/s, 225° | - | - |
| 1787495131 | 29.44° C | 81% | 1002.3 hPa | - | 1.34 m/s, 270° | - | - |
| 1787494234 | 29.44° C | 81% | 1002.2 hPa | - | 1.34 m/s, 225° | - | - |
| 1787493333 | 29.44° C | 81% | 1002.2 hPa | - | 1.79 m/s, 270° | - | - |
* Rain since midnight (hover to see other rain measurements)
** Current wind speed in m/s (hover to see current wind gust speed)